Theta_e
325 329 330 313 301 300 297 305 311 311 309 313 317 318 318 318 315 308 329 330 332 338 342 342 345 347 345 346 346 347 346 345 342 340 338 337 336 336 335 334 334 334 334 334 333 333 334 333 332
324 324 314 306 297 294 297 309 307 311 314 317 318 318 317 315 325 321 322 329 337 340 342 341 343 346 344 344 345 345 345 343 340 338 337 336 336 335 335 334 333 333 332 332 332 332 332 332 332
321 321 308 302 297 294 298 310 308 313 313 314 313 318 317 317 326 325 327 333 340 340 341 340 343 344 343 344 346 345 344 341 338 338 336 335 335 335 334 333 333 332 331 330 329 330 330 330 330
313 312 307 299 297 298 306 313 317 313 313 315 317 313 321 329 328 329 331 338 337 338 340 340 344 346 346 345 346 346 343 339 337 337 336 335 335 335 334 333 332 331 330 330 330 329 328 328 329
312 308 301 298 300 298 309 314 315 310 310 311 315 314 317 328 332 332 334 335 334 334 338 340 343 345 346 346 345 345 343 340 339 337 336 335 335 333 333 332 332 332 332 332 330 330 332 332 331
305 305 299 298 298 301 306 312 311 308 308 312 316 316 317 329 328 330 332 332 336 335 337 340 337 340 342 344 345 344 344 343 341 339 337 336 335 334 334 333 333 332 332 332 332 333 333 332 331
303 301 297 299 300 303 307 309 306 307 306 308 317 313 319 324 329 328 330 334 336 337 336 336 337 337 335 338 339 341 342 341 341 340 339 338 336 336 336 336 335 334 333 334 334 334 334 333 333
306 303 298 300 302 302 306 308 309 307 307 312 318 314 319 323 329 328 330 333 333 335 335 334 334 336 336 336 333 335 337 338 338 337 334 332 332 333 332 331 333 334 334 335 335 335 334 334 334
309 299 299 303 304 304 309 306 308 310 313 317 322 320 324 329 329 326 322 321 327 332 334 334 334 333 333 334 333 331 332 333 333 332 329 328 325 328 328 328 330 334 335 336 336 336 336 334 332
304 296 301 307 304 303 307 307 307 307 310 315 320 326 326 326 326 324 322 318 320 325 330 334 333 332 332 335 332 331 333 331 331 330 327 325 325 326 328 324 325 330 330 332 335 335 333 328 324
304 299 304 306 310 305 306 306 306 305 302 314 317 322 321 321 321 324 324 322 318 319 325 330 333 333 332 333 331 329 330 329 329 328 326 325 326 325 325 323 323 322 321 323 325 324 323 322 321
300 304 305 307 308 308 303 304 303 304 304 312 323 323 321 319 319 320 322 324 325 326 327 322 328 329 328 326 329 330 329 329 328 329 329 326 325 324 323 323 323 322 322 321 321 320 321 320 321
301 302 304 304 305 306 307 304 303 304 315 322 324 323 321 321 321 322 325 326 326 326 328 328 322 321 323 322 325 327 327 327 328 329 329 327 325 324 324 323 323 322 322 322 321 321 321 320 321
301 302 302 304 303 304 305 304 303 303 313 319 319 309 309 307 307 306 314 314 323 328 328 330 326 326 325 324 324 324 323 323 324 324 325 326 325 325 324 324 323 323 323 322 321 321 320 320 319
303 298 299 300 302 300 303 302 301 304 308 302 299 299 301 302 303 302 302 303 304 306 316 327 330 329 329 329 331 331 331 331 329 328 328 328 329 327 327 326 322 322 322 321 320 320 319 318 318
299 297 292 298 302 300 302 295 296 297 300 295 296 298 301 302 303 303 304 305 305 306 308 312 321 330 330 329 330 330 332 334 333 333 333 333 332 331 327 326 325 325 324 323 322 322 322 321 320
297 291 291 293 298 298 298 290 293 297 297 293 294 297 300 301 302 303 304 305 305 307 309 312 317 319 328 331 331 332 332 334 334 334 334 334 334 333 331 329 328 328 327 326 325 326 323 323 324
291 294 295 293 297 294 290 289 292 293 294 291 293 295 298 298 299 301 302 302 303 303 305 308 310 312 321 332 332 333 332 331 330 328 326 327 328 330 331 330 330 330 329 328 328 327 328 326 326
295 296 295 299 297 293 290 290 291 292 292 292 295 294 295 296 298 299 300 300 300 301 302 303 304 305 314 319 325 327 324 320 319 318 317 312 311 313 315 319 319 321 324 322 323 323 323 323 324
295 294 292 297 299 296 291 289 292 293 291 291 292 292 294 294 295 297 297 297 297 298 299 300 301 302 305 310 319 322 318 313 311 311 309 309 306 306 307 307 309 311 312 311 312 313 314 316 317
293 292 290 292 298 297 294 291 292 292 293 293 293 293 293 293 293 293 294 293 294 294 295 297 298 299 300 305 309 308 308 305 304 303 303 303 302 301 302 302 303 304 305 304 304 305 307 308 312
291 297 294 295 294 288 296 285 292 290 288 289 290 292 292 293 294 294 293 292 292 292 294 295 296 295 296 299 300 300 298 296 298 299 299 300 300 298 299 299 300 300 301 300 301 302 303 305 303
293 297 294 294 289 289 290 287 288 291 288 288 289 290 291 292 292 292 292 292 292 293 292 294 294 294 294 295 296 296 295 295 295 295 295 296 297 296 296 297 297 298 298 298 298 299 299 300 298
300 296 294 293 291 283 288 286 282 287 289 289 290 291 292 292 292 293 294 293 291 291 293 293 293 293 294 293 293 293 293 293 292 293 292 293 294 294 295 295 296 296 296 297 297 296 295 295 295
297 292 282 281 282 279 287 285 282 287 290 289 289 290 291 291 291 291 291 291 291 291 291 292 291 291 292 291 291 290 291 291 290 290 290 290 290 291 291 293 294 294 294 295 294 293 293 292 292
294 293 282 276 277 278 287 283 282 286 289 289 290 290 290 290 291 291 291 290 290 290 289 289 290 289 290 291 289 289 289 290 290 289 289 288 288 289 291 292 292 293 293 291 291 291 290 289 290
292 288 290 282 278 280 282 281 284 285 286 287 288 289 289 289 290 289 289 289 288 288 288 288 288 288 288 289 288 287 287 287 287 287 287 287 287 289 289 290 290 291 291 289 289 289 287 287 288
293 293 285 284 275 275 278 277 278 281 283 285 286 287 288 289 289 288 288 288 287 287 287 287 287 286 287 287 287 286 285 285 285 285 284 284 285 286 287 288 288 288 288 287 286 286 286 285 286
286 286 286 286 283 277 274 277 284 284 285 284 285 287 288 288 288 287 287 287 286 286 285 285 285 285 285 286 285 284 283 283 283 283 283 283 284 285 285 287 286 286 286 285 284 284 284 283 284
289 286 286 280 279 281 280 278 285 287 286 285 285 286 287 288 287 287 287 286 285 284 283 283 284 283 284 284 284 283 282 282 281 281 281 282 282 283 284 285 285 284 285 284 283 283 283 281 282
Wind_Speed
6 1 1 5 5 5 3 4 4 1 5 6 3 12 8 4 3 3 1 8 16 12 8 9 12 12 12 13 13 12 14 15 13 11 11 11 10 10 9 8 8 7 8 8 8 8 9 9 9
4 2 4 3 5 2 4 2 2 2 6 8 9 5 7 3 3 6 5 7 14 13 9 8 11 12 13 13 12 12 12 13 12 11 10 10 9 8 8 7 6 6 6 6 6 6 6 6 7
2 1 4 5 3 4 4 2 3 4 1 4 5 7 4 2 4 7 11 12 12 11 9 9 11 12 12 12 11 12 11 11 11 10 9 8 7 7 6 5 5 4 4 4 4 4 4 4 5
2 5 4 4 3 0 6 1 4 4 4 7 7 8 4 4 4 8 14 14 12 10 8 9 11 12 11 11 11 13 12 11 10 9 8 7 6 6 4 3 2 2 1 1 1 2 3 3 4
4 3 3 1 3 1 3 10 6 3 4 4 2 5 4 4 11 17 14 12 13 7 6 8 11 11 10 10 13 12 11 10 9 9 7 6 5 4 3 2 1 1 2 3 3 2 4 5 6
4 3 3 1 3 3 2 4 4 1 1 4 7 5 2 3 10 11 13 11 12 10 7 6 8 9 9 10 11 11 11 10 9 8 7 6 6 5 4 4 4 4 5 5 5 6 6 7 8
4 4 3 3 1 2 1 4 6 5 2 4 8 6 0 2 6 10 12 12 11 10 7 6 6 5 6 6 7 8 9 8 8 7 7 6 5 5 5 6 7 7 7 8 8 8 9 10 10
4 4 2 3 3 3 3 3 6 2 3 2 3 7 6 3 3 9 9 10 10 9 9 7 6 6 5 5 7 7 9 9 8 8 7 6 5 5 6 7 8 9 9 10 10 10 11 12 12
3 4 2 1 3 2 2 2 2 4 7 5 7 4 6 8 6 11 8 5 5 6 8 7 7 6 6 5 5 7 8 8 8 7 8 7 3 5 6 6 9 11 11 11 12 11 11 11 10
5 3 3 2 2 0 1 1 5 5 4 6 10 9 8 5 7 9 9 7 5 5 6 8 6 6 5 5 6 5 4 4 4 4 5 4 5 5 5 6 9 11 11 11 11 12 11 8 4
3 5 3 1 4 0 1 2 2 9 3 6 11 13 4 5 4 7 6 6 7 6 3 6 8 6 6 5 3 2 3 3 3 6 5 5 3 4 3 3 3 3 6 4 5 5 4 5 4
2 2 2 4 4 3 2 2 5 3 2 6 11 11 6 6 4 3 5 4 6 5 7 7 7 7 6 4 3 4 3 3 3 4 6 4 3 4 4 3 4 3 3 5 4 3 5 6 6
2 1 2 3 5 2 6 4 5 4 6 13 12 7 9 7 4 3 4 4 4 5 5 7 7 7 6 5 4 4 4 4 5 4 5 4 4 4 4 4 3 4 3 4 4 4 5 5 6
1 3 2 3 2 3 5 2 4 2 4 11 10 11 10 12 8 7 6 7 5 5 6 6 7 7 6 5 5 4 3 4 4 4 5 6 4 4 4 4 4 4 4 4 4 5 5 5 5
1 3 3 0 2 2 1 5 6 6 8 15 15 14 14 11 13 9 7 7 7 5 5 6 5 7 7 6 4 3 3 3 3 4 5 6 5 5 5 4 4 4 4 5 4 5 4 4 5
3 5 4 5 1 2 3 2 7 12 15 11 10 10 13 14 12 9 9 8 9 8 9 8 7 3 4 6 4 3 2 2 2 3 3 4 4 4 4 3 4 4 3 3 3 4 5 5 5
1 4 4 3 6 1 4 3 9 8 17 9 9 9 11 11 13 12 12 10 10 10 11 11 10 9 3 3 1 2 3 4 5 4 5 6 6 5 4 3 3 4 3 3 4 5 4 6 7
13 14 5 5 5 16 14 7 8 11 15 9 8 8 11 12 11 11 12 11 11 11 11 11 9 12 8 2 1 2 6 6 8 9 9 12 10 10 7 6 7 6 5 5 5 5 5 4 6
9 17 11 2 5 13 7 10 8 7 11 11 10 8 10 11 7 10 11 11 11 13 13 13 13 13 9 4 3 7 8 7 9 10 14 14 12 12 12 8 9 9 8 10 11 6 8 6 7
11 15 9 7 8 9 6 10 9 10 5 5 6 7 8 7 10 11 11 11 12 11 12 13 13 13 10 7 4 5 5 7 7 8 12 13 14 13 11 10 9 10 8 10 11 11 7 3 5
5 13 7 10 9 7 10 3 1 5 6 7 7 6 8 7 8 8 10 10 9 12 11 12 12 13 12 11 7 6 5 6 6 9 8 10 11 12 11 11 9 9 8 8 8 10 10 8 5
11 6 12 18 16 6 11 4 7 3 5 5 5 6 7 7 8 8 8 10 9 9 8 11 13 14 13 13 11 14 9 7 5 5 6 7 11 12 12 11 10 9 7 9 8 8 7 7 8
5 9 12 9 4 9 11 3 2 14 8 8 6 7 7 6 6 7 7 8 7 7 8 9 12 14 13 14 12 8 8 5 4 5 8 9 8 11 12 11 10 10 8 9 10 9 10 7 6
9 11 10 4 3 5 13 8 6 11 12 11 8 8 8 7 6 6 6 6 7 7 9 9 12 13 13 13 13 12 11 9 8 9 8 7 6 8 12 11 10 9 9 9 8 9 9 9 7
9 17 3 5 5 5 10 5 3 8 15 15 14 10 7 6 6 5 6 7 7 9 9 8 11 12 10 12 12 11 9 9 9 8 7 9 7 7 10 11 10 9 10 10 9 9 9 10 8
16 6 6 8 7 4 3 6 3 2 8 11 10 10 8 7 5 5 5 6 7 8 7 8 9 11 10 10 10 9 10 6 7 8 6 6 6 6 9 9 9 9 9 10 9 7 8 9 7
6 6 3 7 4 3 5 2 6 4 8 11 11 10 8 7 6 6 6 5 5 6 6 7 7 8 8 8 7 8 8 9 7 8 7 5 6 7 9 8 8 9 9 9 9 7 9 9 8
5 9 4 2 7 4 2 3 4 11 13 11 11 11 8 7 7 6 5 6 5 6 6 7 7 7 7 7 7 7 7 6 5 5 7 7 7 8 8 8 8 9 8 9 8 6 8 9 7
4 5 5 4 1 5 5 6 6 19 17 16 12 11 11 9 8 6 5 5 6 6 6 5 6 6 6 5 5 5 5 6 6 6 7 7 6 7 8 8 8 9 7 8 7 8 9 10 9
1 5 5 5 3 2 1 4 5 14 14 13 11 10 8 9 8 7 6 6 5 5 5 5 4 5 5 5 5 7 6 6 6 6 6 6 7 7 7 7 7 8 5 6 8 9 9 10 10
Wind_Direction
324 72 47 45 57 59 286 317 340 123 51 321 45 88 100 47 64 153 57 129 130 139 146 139 138 131 124 110 112 123 125 115 109 107 106 105 101 99 96 90 84 80 80 77 73 68 62 58 54
313 130 31 88 87 58 271 330 336 3 140 140 92 90 54 56 73 112 88 144 136 137 139 134 134 135 136 133 130 118 115 113 114 113 113 113 110 103 100 97 91 83 78 74 67 64 59 52 44
252 133 82 104 127 189 180 240 332 288 61 81 98 56 76 1 103 149 133 138 131 131 134 139 136 139 143 145 135 129 122 120 121 121 120 119 117 115 112 106 96 85 74 65 54 45 40 32 22
50 9 27 92 240 134 148 110 296 289 33 62 114 65 55 316 155 127 133 131 127 128 129 143 142 143 140 152 150 138 130 129 131 132 133 126 126 123 120 117 97 99 93 82 43 13 358 346 341
33 61 63 69 258 103 214 151 193 218 102 39 107 128 73 20 103 126 130 136 131 123 131 145 145 146 142 126 141 133 137 140 142 144 147 147 148 153 156 164 206 249 285 309 301 294 302 305 306
34 86 48 313 272 107 244 200 147 104 60 135 70 73 68 100 107 142 135 136 132 133 138 140 145 147 151 146 144 149 150 153 156 160 163 165 171 184 195 218 236 253 267 276 281 282 289 289 292
108 78 200 233 195 331 201 140 136 138 106 33 135 88 155 121 115 148 139 126 130 132 134 136 143 152 154 153 157 160 159 160 164 167 173 187 212 223 224 231 246 259 268 276 282 288 292 291 289
103 92 344 358 331 254 352 75 125 111 81 81 123 139 163 191 112 114 120 124 131 139 144 149 150 154 159 172 179 186 177 174 182 186 191 199 211 245 266 266 269 269 269 265 270 270 278 284 285
92 63 148 175 197 258 18 104 44 16 79 51 358 87 135 128 111 97 101 82 116 145 156 156 162 168 171 179 190 184 187 190 199 198 198 212 231 243 259 256 254 260 261 260 261 263 270 274 277
99 122 201 218 213 175 223 11 137 84 65 45 76 63 66 87 115 126 132 150 157 172 174 167 176 184 183 187 179 199 203 218 226 233 222 225 237 245 250 262 262 255 252 261 264 269 272 277 268
160 167 251 274 217 329 146 72 15 130 84 187 165 145 108 108 136 136 136 162 175 178 189 181 178 191 186 203 184 196 200 216 233 239 241 242 249 258 266 269 279 279 266 260 270 277 269 268 264
186 192 217 272 324 48 21 54 68 59 215 148 144 136 121 136 155 181 157 167 161 166 172 199 197 180 199 190 191 191 196 215 230 239 243 238 247 253 259 258 258 254 258 268 261 265 267 263 261
148 221 30 36 93 86 71 51 129 78 100 104 117 122 136 140 168 235 232 218 223 208 212 190 185 193 187 185 188 187 211 214 230 230 237 224 236 239 241 251 261 263 268 258 268 260 264 263 262
200 185 186 349 49 52 112 108 67 347 111 104 104 79 66 63 48 43 21 347 304 286 231 205 189 194 179 185 190 206 213 231 227 236 238 234 234 241 245 262 264 271 256 259 250 256 262 266 268
144 95 83 145 0 50 284 43 51 10 77 92 88 86 81 69 61 46 22 28 358 359 349 309 237 186 179 177 179 189 215 213 251 251 240 237 232 238 250 257 263 254 263 276 279 276 269 270 265
126 71 127 325 126 343 91 107 332 331 105 83 78 79 76 62 58 44 25 34 11 11 20 9 355 226 204 179 188 202 274 273 280 308 304 288 284 278 260 263 272 280 284 284 281 285 287 282 275
118 160 148 102 12 274 62 71 342 25 103 78 76 67 72 63 46 37 25 20 22 17 15 23 15 9 296 204 184 48 19 39 34 26 16 13 19 9 16 351 338 329 315 304 295 300 272 294 293
184 192 200 123 353 83 77 56 21 33 80 77 67 66 64 61 39 29 25 21 26 26 25 21 24 15 3 86 117 76 65 56 52 41 39 34 30 24 20 19 9 359 351 341 326 305 311 282 288
147 178 204 180 103 70 70 78 53 26 52 67 66 63 65 54 30 38 27 23 29 31 30 26 26 9 22 16 30 67 64 49 53 50 41 39 31 24 28 21 21 12 16 13 5 352 347 334 350
166 176 168 118 127 84 62 71 58 48 48 59 85 71 71 62 41 29 26 25 27 30 30 30 31 25 23 26 29 50 68 56 50 43 43 35 34 28 30 23 23 18 18 16 12 10 349 320 353
196 177 174 139 131 75 119 320 57 69 62 73 60 70 63 65 60 31 27 20 27 28 24 33 33 38 31 31 41 48 51 34 36 28 30 30 34 31 30 26 24 23 25 17 10 9 10 349 342
201 164 143 142 155 173 172 180 189 154 98 71 67 71 68 69 61 53 40 35 23 23 27 40 42 42 36 33 48 55 56 54 16 20 18 24 29 28 26 24 21 21 18 18 9 6 7 5 358
194 105 131 147 126 118 184 151 205 155 177 154 136 102 87 73 73 62 50 44 28 26 32 45 50 48 42 43 47 50 56 45 28 23 28 22 22 28 21 22 19 18 17 13 8 11 14 18 1
142 90 59 83 43 211 183 177 195 185 179 157 145 130 126 112 95 77 67 64 47 28 42 45 54 48 42 44 43 42 39 36 32 23 22 16 12 17 19 15 17 18 14 13 7 14 13 12 6
136 143 132 178 189 240 161 166 216 199 167 159 154 144 128 117 112 103 85 70 59 46 39 46 48 51 41 48 45 40 37 38 40 27 20 13 9 12 9 10 12 14 12 18 8 9 10 6 359
167 166 157 185 170 158 173 212 276 137 126 128 134 132 124 115 100 88 80 76 71 62 50 50 45 50 42 45 43 38 36 37 38 29 23 19 12 9 4 9 14 18 20 16 10 3 11 360 355
174 189 59 102 32 108 138 8 359 70 114 132 140 135 133 128 119 99 84 80 74 69 59 61 58 53 46 45 50 40 36 38 30 28 21 11 8 11 6 7 12 14 39 17 11 8 7 355 350
181 128 102 62 158 173 143 207 205 183 172 161 156 150 144 136 129 125 123 111 89 73 60 53 50 47 39 46 41 42 32 31 26 27 24 11 4 0 8 6 14 16 33 11 11 8 6 355 351
144 178 131 103 305 134 137 244 201 181 180 169 162 156 154 149 146 143 132 112 98 82 72 63 56 52 42 45 45 47 36 30 27 27 18 11 1 358 9 359 9 17 23 11 4 4 5 352 345
273 158 144 123 183 49 118 239 319 175 166 155 158 159 154 148 149 149 139 121 101 95 85 73 56 53 39 41 41 36 28 24 23 16 6 2 1 4 355 353 13 8 356 10 4 2 357 348 340